ELECTRON KICK STAGE R/B, 67224

Orbit data source: Space-Track

ELECTRON KICK STAGE R/B, 67224 is space debris in LEO originally from a launch on Thu, 18 Dec 2025 UTC launched from the Wallops Island (WLPIS). Debris objects in space refer to the collection of defunct objects orbiting the Earth. Examples of debris include non-operational satellites, rocket bodies, and fragments generated from explosions, collisions, or faulty payload assembly.

Loading next visibility...
Identifier
67224, 2025-305F
Orbit
LEO
Country
Flag of USUS
Related business
Manufacturer
Rocket Lab
Mission
Spacecraft
Bus & Motor
ELECTRON ST2, Unknown motor
Mass
250 kg wet, ~250 kg dry
Launch date (UTC)
2025-12-18 (4 days ago)
Launch vehicle
Unknown
Launch site
Wallops Island (WLPIS)
Object type
Payload
Rocket body
Debris
Shape & HBR
Unknown
Radar Cross Section
RCS unknown

Expand to show TLE details & history
Last TLE update: 3 days ago

TLE from 3 days ago
0 ELECTRON KICK STAGE R/B
1 67224U 25305F   25352.76890193  .00172783  86369-5  22935-3 0  9995
2 67224  45.0188 318.3021 0262888 280.1207  77.0133 15.64663678    93
Epoch: 2025-12-18T18:27Z
TLE epoch observation values (Epoch: 2025-12-18T18:27:13.126Z)
Latitude
-0.00007°
Longitude
-46.12232°
Altitude
338.789 km
Speed
7.727 km/s
True Right ascension
21h 13m 12s
True Declination
0° 00' 00"
Sunlit
Object was in daylight at epoch
Visualization orbit readout
Latitude
Unknown
Longitude
Unknown
Altitude
Unknown
Speed
Unknown
Apparent Right ascension
Unknown
Apparent Declination
Unknown
Sunlit
N/A
Visualization observer readout
Local Sidereal Time
12:17:31
Azimuth
Unknown
Elevation
Unknown
Doppler factor
Unknown
Orbital elements
Apogee altitude
553.394 km
Perigee altitude
198.286 km
Semi-major axis
6,753.977 km
Eccentricity
0.02629
Inclination
45.0188°
RAAN
318.3021°
Arg. of periapsis
280.1207°
True anomaly
79.96924°
Mean anomaly
77.0133°
Eccentric anomaly
78.48924°
Mean motion
3.91024 °/min
Orbital period
92.07 mins
BSTAR
0.00022935
Loading maneuver chart data...
Computing Atmospheric mass density...
Loading historical data...
Loading historical data...
Loading historical data...
Loading historical data...
Loading historical data...
Loading historical data...
Loading historical data...
Other satellites on launch #305 in the year 2025 (2025-12-18 UTC)

Documentation

Showing up to 5 results
|